Location: Goettingen
(51.5300°N, 9.9433°E)
Time: 17:56:52
(UTC+01:00)

ISS - Pass Details

Date: 03 December 2025
Orbit: 416 x 420 km, 51.6° (Epoch: 12 December)

Event Time Altitude Azimuth Distance (km) Brightness Sun altitude
Rises 16:46:45 0° 283° (WNW) 2,371 0.9 -5.2°
Reaches altitude 10° 16:49:07 10° 268° (W) 1,503 0.2 -5.5°
Maximum altitude 16:51:51 23° 214° (SW) 945 -1.0 -5.9°
Drops below altitude 10° 16:54:33 10° 160° (SSE) 1,493 -0.8 -6.3°
Sets 16:56:54 0° 145° (SE) 2,351 0.0 -6.6°
